Temperature
15 15 16 15 16 15 16 16 16 16 16 16 16 16 16 16 16 16 16 16 15 15 15 15 15 15 15 15 15 15 15 15 15 15 15 15 15 15 15 15 15 14 15
15 15 16 15 15 15 16 16 16 16 16 16 16 16 16 16 16 16 15 15 15 15 15 15 15 15 15 15 15 15 15 15 15 15 15 15 15 15 15 15 15 14 14
15 15 15 15 15 15 15 15 16 15 16 16 16 16 16 16 16 15 15 15 15 15 15 15 15 15 15 15 15 15 15 15 15 15 14 14 14 15 15 15 15 14 14
15 15 15 15 15 15 15 15 15 15 15 15 15 15 15 15 15 15 15 15 15 15 15 15 15 15 15 15 14 15 15 15 15 14 14 13 14 14 14 14 14 14 14
15 14 15 15 15 15 15 15 15 15 15 15 15 15 15 15 15 15 15 15 15 15 15 15 15 15 14 14 14 14 14 14 14 14 13 13 13 14 14 14 14 14 14
14 14 14 15 15 15 15 15 15 15 15 15 15 15 15 15 15 15 15 15 15 14 15 14 14 14 14 14 14 14 14 14 14 13 13 13 13 13 13 14 14 13 13
14 14 14 14 14 15 15 15 15 15 15 15 15 15 15 15 15 14 14 14 14 14 14 14 14 14 14 14 14 14 14 14 13 13 13 13 13 13 13 13 13 13 13
14 14 14 14 14 14 14 15 15 15 15 15 15 15 15 14 14 14 14 14 14 14 14 14 14 14 14 14 14 14 14 13 13 13 13 13 13 13 13 13 13 13 13
13 14 14 14 14 14 14 14 14 14 14 14 14 14 14 14 14 14 14 14 14 14 14 14 14 14 14 14 13 13 13 13 12 12 12 12 13 13 13 12 12 12 12
13 13 14 14 14 14 14 14 14 14 14 14 14 14 14 14 14 14 14 14 14 14 14 14 14 13 13 13 13 13 13 13 12 12 12 12 13 13 12 12 12 12 12
13 13 13 13 13 13 14 14 14 14 14 14 14 14 14 14 13 13 13 13 13 13 13 13 13 13 13 13 13 13 12 12 12 12 12 12 12 12 12 12 12 12 12
13 13 13 13 13 13 13 13 13 13 13 13 13 13 13 13 13 13 13 13 13 13 13 13 13 13 13 12 12 12 12 11 11 11 11 12 12 12 12 12 12 12 12
12 13 13 13 13 13 13 13 13 13 13 13 13 13 13 13 13 13 13 12 12 12 13 13 12 12 12 12 12 12 11 11 11 11 11 11 11 11 11 11 11 11 11
12 12 13 13 12 12 13 13 13 13 13 13 13 13 13 13 12 12 12 12 12 12 12 12 12 12 12 12 12 11 11 11 11 11 11 11 11 11 11 11 11 11 11
12 12 12 12 12 12 12 12 12 12 12 12 12 12 12 12 12 12 12 12 12 12 12 12 12 12 11 11 11 11 11 11 11 11 11 11 11 11 11 11 11 11 11
11 11 12 12 12 12 12 12 12 12 12 12 12 12 12 12 12 12 12 12 12 12 12 12 11 11 11 11 11 11 11 11 10 10 10 11 11 11 11 11 11 11 11
11 11 11 11 11 11 11 11 11 12 12 12 12 12 12 12 12 11 11 11 11 11 11 11 11 11 11 11 11 11 11 10 10 10 10 10 10 11 11 10 10 10 10
10 10 11 11 11 11 11 11 11 11 11 11 11 11 11 11 11 11 11 11 11 11 11 11 11 11 11 11 11 10 10 10 10 10 10 10 10 10 10 10 10 10 10
10 10 10 10 10 11 11 11 11 11 11 11 11 11 11 11 11 11 11 11 11 11 10 10 10 10 10 10 10 10 10 10 10 10 10 10 10 10 10 10 10 10 10
9 9 10 10 10 10 10 10 10 10 10 10 10 10 10 10 10 10 10 10 10 10 10 10 10 10 10 10 10 10 10 9 9 9 9 9 9 10 9 9 9 10 10
8 9 9 9 9 9 10 10 9 10 10 10 10 10 10 10 10 10 10 10 10 10 9 9 9 9 10 10 9 9 9 9 9 9 9 9 9 9 9 9 9 9 9
8 8 8 8 9 9 9 9 9 9 9 9 9 9 9 9 9 9 9 9 9 9 9 9 9 9 9 9 9 8 8 8 8 8 9 9 9 9 9 9 9 9 9
7 8 8 8 8 8 9 9 9 8 8 8 8 9 9 9 9 9 9 8 8 8 8 9 8 8 8 8 8 8 8 8 8 8 8 8 8 8 8 8 8 8 8
7 7 7 7 8 8 8 8 8 8 8 8 8 8 8 8 8 8 8 8 8 8 8 8 8 8 8 8 8 7 7 7 7 7 7 7 8 7 7 8 8 8 8
6 6 6 7 7 7 7 7 7 7 7 7 7 7 7 8 8 8 7 8 7 7 7 7 7 7 7 7 7 7 7 7 6 6 6 6 7 7 7 7 7 7 7
5 6 6 6 6 7 7 7 7 7 7 6 7 7 7 7 7 7 7 7 7 7 7 7 7 7 6 6 6 6 6 6 6 6 6 6 6 6 6 7 7 7 7
Wind_Speed
3 4 6 5 7 7 8 9 10 11 11 12 12 12 12 12 11 12 12 12 12 12 12 13 13 13 14 14 15 15 15 15 15 15 15 15 15 15 14 12 12 14 15
4 5 7 6 7 8 8 9 10 11 11 12 12 12 12 11 11 11 11 12 12 12 12 12 13 13 14 14 14 14 14 14 14 13 13 14 14 13 13 12 12 13 14
4 6 8 7 8 8 8 10 10 10 11 11 11 11 11 11 11 11 11 12 11 12 12 12 12 13 13 13 13 14 14 13 12 10 8 10 12 13 13 13 13 13 13
5 6 7 8 8 8 9 10 10 10 10 11 11 11 11 11 11 11 11 11 11 11 11 12 12 12 12 12 12 13 12 12 10 6 8 9 10 11 12 12 12 13 13
5 5 7 8 9 9 9 10 10 10 10 11 10 10 10 10 10 10 11 10 10 11 11 11 11 11 12 11 11 11 11 10 8 7 9 9 9 10 11 11 11 12 12
5 5 7 7 9 9 8 9 10 10 10 10 10 10 10 9 9 10 10 10 10 10 10 10 10 10 11 11 11 10 9 7 6 8 8 8 8 10 10 10 11 11 11
4 4 6 6 8 8 8 9 10 10 10 10 10 9 9 9 9 9 10 10 10 9 9 9 9 9 9 9 9 9 8 5 5 7 7 7 8 8 9 10 10 11 10
4 4 5 6 6 8 8 8 9 10 10 10 9 9 9 9 9 9 9 9 9 9 9 9 8 8 8 8 8 8 6 4 5 6 6 6 8 7 8 9 9 9 9
3 3 4 4 5 7 8 8 8 9 10 9 9 9 8 9 9 9 9 8 8 8 8 8 8 7 7 7 8 7 6 2 3 4 5 5 7 7 7 7 7 8 7
2 2 3 4 4 5 7 8 8 8 9 9 8 8 8 8 8 8 8 7 7 8 8 7 7 7 6 7 6 6 5 3 3 4 4 5 6 5 6 6 6 6 6
2 1 1 3 3 3 5 8 8 8 8 8 8 8 7 6 6 6 6 7 7 7 7 7 7 6 6 6 6 5 4 3 3 2 3 5 4 4 4 4 4 5 5
1 1 1 1 2 3 3 5 6 6 6 6 6 6 5 4 4 4 6 6 6 7 7 6 6 6 5 5 5 5 3 3 2 2 3 3 2 3 3 3 3 4 5
1 1 1 1 1 2 2 3 3 4 4 4 4 4 4 4 4 4 4 5 5 5 5 5 5 4 4 3 4 4 3 2 2 2 3 2 2 2 2 2 2 3 4
1 0 1 1 1 1 1 2 3 3 3 3 3 3 3 3 3 3 2 3 3 3 3 4 4 4 4 4 4 4 3 2 2 2 2 2 2 3 3 3 3 3 4
1 1 0 1 1 1 1 1 2 2 3 3 3 3 3 3 3 2 2 2 2 2 3 3 3 3 3 4 4 4 4 4 3 3 2 3 3 3 4 4 4 3 4
2 2 1 1 1 1 1 1 2 2 2 3 2 3 3 3 3 2 2 2 2 2 3 3 3 3 3 3 4 4 4 4 4 4 3 3 3 3 4 4 5 4 4
3 2 2 2 2 2 2 2 2 2 2 2 2 2 2 2 3 3 2 2 2 2 2 3 3 3 3 3 4 4 3 4 4 4 4 4 4 4 4 4 4 4 4
3 3 3 2 3 3 3 2 2 2 2 2 2 2 1 1 3 3 2 2 2 2 2 2 2 3 3 3 3 3 3 3 4 4 4 4 4 4 4 3 3 3 3
3 3 3 3 3 3 3 3 3 3 2 2 2 2 1 1 2 3 2 1 2 2 2 2 2 3 3 3 3 3 3 3 3 3 4 4 4 3 3 3 3 2 3
2 3 3 4 3 4 3 3 2 3 2 2 1 1 1 1 1 2 2 2 2 2 2 3 3 2 3 2 2 2 3 3 3 3 3 3 3 4 4 3 3 4 4
2 3 4 4 4 4 3 3 3 2 2 2 1 2 2 1 1 1 1 2 2 2 2 3 3 3 2 2 2 2 3 4 4 3 3 3 3 3 4 4 4 3 3
1 2 3 4 4 4 3 3 2 2 2 2 1 1 1 1 1 1 0 1 2 2 2 2 2 2 2 2 2 2 3 4 4 4 3 3 4 3 3 3 4 4 4
2 2 1 3 4 4 4 3 3 3 2 1 1 1 1 1 1 1 1 2 2 2 2 3 3 4 3 3 2 2 3 3 2 3 4 4 4 3 3 4 4 5 5
2 1 1 2 2 2 3 4 5 4 3 2 2 2 2 2 2 1 2 2 2 3 3 3 3 3 3 3 3 3 3 2 2 2 3 4 4 4 4 4 5 5 6
2 1 1 1 2 2 2 3 4 3 3 2 2 3 3 3 2 2 2 3 3 3 3 3 3 3 3 3 3 3 4 3 4 4 4 3 3 4 4 5 5 5 6
0 1 1 1 2 2 2 2 3 3 3 3 3 3 3 3 3 3 3 3 3 3 4 4 4 4 4 4 4 3 3 3 4 4 5 4 4 4 4 5 5 4 5
Wind_Direction
154 153 147 152 143 132 130 128 125 123 122 120 117 115 112 108 105 102 99 98 96 94 94 95 96 97 96 95 93 91 91 88 89 90 90 88 87 87 85 85 89 86 83
154 157 147 155 146 136 134 133 128 125 124 122 119 117 114 111 109 105 103 101 98 95 94 94 93 95 96 94 94 93 92 89 88 90 95 94 90 89 85 80 77 86 85
141 148 150 152 146 137 136 135 132 129 127 125 123 121 118 115 111 109 106 104 101 97 97 96 96 97 97 95 95 94 93 91 90 92 102 99 95 92 90 88 87 89 88
137 143 148 143 144 138 137 138 134 133 130 128 125 124 121 117 114 113 111 108 104 101 100 99 99 100 100 98 97 95 93 93 93 100 98 97 98 97 95 93 92 91 89
134 135 133 140 142 135 135 138 136 135 134 132 129 126 124 121 118 116 115 113 109 106 104 102 102 103 103 102 100 98 95 94 96 97 91 95 99 99 98 96 96 95 92
132 131 128 136 145 140 139 141 134 136 136 134 132 129 127 124 121 118 117 114 111 110 109 107 106 105 107 105 105 103 100 99 111 97 95 97 101 102 103 101 101 99 97
133 128 133 134 144 143 143 142 140 137 138 137 135 133 130 129 126 121 118 116 115 115 114 111 110 108 112 111 109 107 103 99 101 99 98 96 97 104 107 105 104 101 99
133 127 127 131 144 149 145 144 145 144 139 135 136 135 133 131 129 126 123 120 119 119 118 116 113 111 114 114 112 110 105 112 111 105 103 100 96 104 111 108 106 103 100
130 129 128 140 144 149 144 143 142 140 141 135 133 130 129 128 130 130 128 127 126 125 123 120 117 115 115 118 116 113 109 113 124 110 107 102 100 105 110 111 111 110 107
104 137 141 147 152 157 162 150 147 141 138 135 133 130 129 130 132 129 133 130 130 130 127 125 124 122 117 120 120 119 122 154 128 123 117 106 102 109 109 115 119 119 116
58 64 147 157 161 166 169 162 157 147 140 139 135 132 139 145 145 143 137 133 137 138 135 132 130 130 130 127 129 137 157 158 139 128 120 103 113 123 124 121 125 135 132
74 47 67 148 174 174 167 167 166 159 154 152 147 149 152 148 140 136 131 138 143 144 143 140 140 149 162 151 150 166 177 179 167 153 127 112 148 149 142 148 141 156 153
177 70 54 60 119 160 168 161 161 160 158 154 148 153 153 144 138 139 140 145 152 158 159 156 163 170 177 166 171 181 188 197 196 183 152 138 179 181 184 183 181 180 177
171 123 58 79 73 103 171 161 157 152 148 145 155 155 155 148 150 151 153 154 166 177 182 181 182 181 188 186 186 188 193 204 209 205 172 166 212 222 222 216 218 211 193
207 194 230 90 98 84 95 155 141 148 153 154 156 163 162 159 167 166 161 166 177 185 191 192 195 192 196 196 197 199 204 211 213 213 195 181 223 241 241 229 226 229 210
231 221 205 180 151 124 135 132 144 141 149 151 150 170 173 170 172 172 165 167 181 203 202 201 204 205 208 204 206 209 218 224 227 223 220 199 203 234 247 239 230 232 223
233 216 199 193 172 165 166 137 126 136 131 135 136 154 168 173 177 173 175 178 188 214 212 206 204 213 213 207 212 217 221 230 232 230 227 225 215 215 239 248 240 230 232
228 213 202 190 173 170 170 153 125 116 124 129 132 134 146 162 166 168 175 187 197 203 200 200 206 215 217 212 214 216 224 225 232 231 226 228 231 229 218 222 231 237 236
225 209 200 189 178 168 162 150 129 115 105 112 136 146 179 185 172 155 159 170 193 199 204 201 212 215 222 218 220 214 217 220 222 225 227 229 237 240 226 185 199 239 254
220 203 198 185 179 168 160 149 136 125 107 84 100 111 150 185 179 166 166 173 188 199 208 209 210 219 221 213 218 222 225 222 223 230 235 237 235 238 238 239 233 226 238
221 203 196 180 177 172 168 171 165 159 141 112 76 93 117 118 145 179 185 188 195 203 214 220 213 210 200 186 200 218 223 227 229 233 234 239 242 243 244 246 250 249 242
217 210 196 186 181 176 174 174 174 157 150 142 129 110 94 104 134 167 171 214 214 217 207 207 214 219 203 198 206 206 226 222 222 227 226 234 244 242 244 244 248 249 257
227 207 178 182 179 174 166 158 153 147 143 154 176 183 197 188 181 183 216 223 222 219 224 219 215 214 215 210 222 220 224 230 237 212 225 231 238 243 249 251 254 255 257
246 220 178 147 141 153 166 169 172 178 182 203 212 213 210 206 201 214 233 226 226 228 229 228 229 227 219 215 223 241 255 259 237 237 222 229 245 248 250 250 249 247 253
248 211 182 145 132 131 152 169 184 190 196 203 213 219 218 216 222 223 237 231 227 228 230 229 225 230 228 228 224 229 235 246 245 246 250 247 252 246 254 257 251 249 249
234 171 178 159 134 129 145 173 183 191 192 204 223 223 222 223 226 231 235 239 238 236 230 230 230 229 232 232 229 230 233 232 233 239 251 262 264 258 257 253 252 254 255
Height
1519 1520 1521 1522 1524 1524 1525 1526 1527 1527 1528 1528 1529 1529 1529 1530 1530 1530 1530 1531 1531 1531 1531 1531 1531 1531 1531 1531 1531 1531 1532 1532 1532 1532 1532 1532 1532 1532 1532 1533 1533 1533 1532
1518 1520 1521 1522 1524 1525 1525 1526 1527 1528 1528 1529 1529 1530 1530 1530 1531 1531 1531 1532 1532 1532 1532 1532 1532 1532 1533 1533 1533 1533 1533 1533 1533 1533 1533 1534 1534 1534 1534 1534 1534 1534 1534
1518 1519 1521 1522 1524 1525 1526 1527 1528 1528 1529 1530 1530 1531 1531 1531 1532 1532 1532 1533 1533 1533 1533 1534 1534 1534 1534 1534 1534 1534 1534 1534 1534 1535 1535 1536 1535 1535 1535 1535 1535 1535 1535
1518 1519 1521 1522 1524 1525 1526 1527 1528 1529 1530 1530 1531 1531 1532 1532 1533 1533 1533 1534 1534 1534 1534 1534 1535 1535 1535 1535 1535 1535 1535 1535 1535 1536 1537 1537 1537 1536 1537 1537 1537 1537 1537
1518 1520 1521 1522 1524 1525 1526 1527 1528 1529 1530 1531 1531 1532 1532 1533 1533 1534 1534 1534 1534 1535 1535 1535 1535 1535 1535 1535 1536 1536 1536 1536 1537 1537 1538 1538 1538 1538 1538 1538 1538 1538 1538
1518 1519 1520 1522 1523 1525 1526 1527 1528 1529 1530 1531 1532 1532 1533 1533 1534 1534 1534 1535 1535 1535 1535 1536 1536 1536 1536 1536 1536 1537 1537 1537 1538 1538 1539 1539 1539 1539 1539 1539 1539 1539 1539
1518 1519 1520 1522 1523 1524 1525 1527 1528 1529 1530 1531 1532 1532 1533 1533 1534 1534 1535 1535 1535 1535 1536 1536 1536 1537 1537 1537 1537 1537 1538 1538 1539 1539 1539 1540 1540 1539 1539 1539 1539 1539 1539
1518 1519 1520 1521 1523 1524 1525 1527 1528 1529 1530 1531 1532 1532 1533 1533 1534 1534 1535 1535 1535 1536 1536 1536 1537 1537 1537 1537 1538 1538 1538 1538 1539 1539 1540 1540 1540 1540 1540 1540 1540 1540 1540
1518 1518 1520 1521 1522 1524 1525 1526 1528 1529 1530 1531 1531 1532 1533 1533 1534 1534 1535 1535 1535 1536 1536 1536 1536 1537 1537 1537 1538 1538 1538 1539 1540 1540 1540 1540 1540 1540 1540 1540 1540 1540 1540
1517 1518 1519 1520 1522 1523 1525 1526 1527 1529 1529 1530 1531 1532 1532 1533 1533 1534 1534 1535 1535 1535 1536 1536 1536 1537 1537 1537 1538 1538 1538 1539 1540 1540 1540 1540 1540 1540 1540 1540 1540 1540 1540
1516 1517 1518 1520 1521 1522 1524 1525 1527 1528 1529 1530 1531 1531 1532 1532 1533 1533 1534 1534 1535 1535 1535 1535 1535 1536 1536 1537 1537 1538 1538 1539 1540 1540 1540 1540 1540 1540 1540 1540 1540 1540 1540
1514 1516 1517 1518 1519 1521 1522 1523 1525 1526 1527 1529 1529 1530 1531 1531 1532 1532 1533 1533 1534 1534 1534 1534 1535 1535 1536 1536 1536 1537 1538 1538 1539 1539 1539 1539 1539 1539 1540 1540 1539 1539 1539
1513 1514 1515 1517 1518 1519 1520 1521 1523 1524 1526 1527 1528 1529 1529 1530 1530 1531 1531 1532 1532 1533 1533 1533 1533 1534 1534 1535 1535 1536 1537 1537 1538 1538 1538 1538 1538 1538 1538 1539 1539 1538 1538
1511 1512 1513 1515 1516 1517 1518 1519 1521 1522 1524 1525 1526 1527 1528 1528 1529 1529 1530 1530 1531 1531 1531 1532 1532 1532 1533 1534 1534 1535 1535 1536 1536 1536 1536 1536 1537 1537 1537 1537 1538 1537 1537
1509 1511 1512 1513 1514 1515 1516 1517 1519 1520 1522 1523 1524 1525 1526 1526 1527 1528 1528 1528 1529 1529 1530 1530 1530 1531 1531 1532 1532 1533 1533 1534 1534 1534 1534 1534 1535 1535 1536 1536 1536 1536 1536
1507 1508 1510 1511 1512 1513 1514 1515 1517 1518 1519 1521 1522 1523 1523 1524 1525 1525 1526 1526 1527 1527 1527 1528 1528 1528 1529 1530 1530 1531 1531 1532 1532 1532 1532 1532 1532 1533 1534 1534 1534 1534 1534
1505 1506 1507 1509 1510 1511 1512 1513 1514 1516 1517 1518 1519 1520 1521 1522 1522 1523 1524 1524 1525 1525 1525 1526 1526 1526 1527 1527 1528 1528 1529 1529 1530 1530 1530 1530 1530 1530 1531 1532 1532 1532 1532
1503 1504 1505 1506 1508 1509 1510 1511 1512 1514 1515 1516 1517 1518 1519 1520 1520 1521 1521 1522 1522 1523 1523 1523 1523 1524 1524 1524 1525 1525 1526 1526 1527 1527 1527 1527 1528 1528 1528 1528 1529 1529 1529
1501 1502 1503 1504 1505 1506 1508 1509 1510 1511 1512 1514 1515 1515 1516 1517 1517 1518 1518 1519 1519 1520 1520 1520 1521 1521 1521 1522 1522 1522 1523 1523 1523 1524 1524 1524 1525 1525 1525 1525 1526 1526 1526
1499 1499 1500 1501 1502 1503 1505 1506 1508 1509 1510 1511 1512 1513 1514 1514 1514 1515 1516 1516 1516 1517 1517 1517 1517 1517 1518 1518 1519 1519 1519 1520 1520 1521 1521 1521 1522 1522 1522 1522 1522 1523 1523
1496 1496 1497 1498 1499 1501 1502 1503 1505 1506 1507 1508 1509 1510 1511 1511 1512 1512 1513 1513 1513 1513 1514 1514 1514 1514 1515 1515 1516 1516 1516 1517 1517 1517 1518 1518 1518 1518 1519 1519 1519 1519 1520
1493 1494 1494 1495 1496 1498 1499 1501 1502 1504 1504 1506 1507 1507 1508 1508 1509 1510 1510 1510 1510 1511 1511 1511 1511 1511 1511 1512 1513 1514 1514 1515 1513 1513 1514 1514 1515 1515 1515 1515 1515 1516 1516
1491 1491 1491 1492 1494 1496 1497 1498 1500 1501 1502 1503 1503 1504 1504 1505 1506 1507 1507 1507 1507 1507 1508 1508 1508 1508 1509 1509 1510 1511 1512 1511 1511 1510 1510 1511 1511 1511 1512 1512 1512 1512 1512
1489 1489 1489 1490 1491 1493 1494 1495 1496 1497 1498 1499 1500 1501 1501 1502 1503 1504 1504 1504 1504 1504 1504 1504 1505 1505 1505 1506 1507 1507 1508 1508 1509 1508 1508 1508 1508 1508 1508 1508 1507 1508 1508
1487 1487 1487 1488 1489 1490 1491 1492 1493 1494 1495 1496 1497 1498 1498 1499 1500 1500 1500 1501 1501 1501 1501 1501 1501 1502 1502 1502 1503 1503 1504 1505 1505 1505 1505 1504 1504 1504 1504 1504 1503 1503 1503
1485 1485 1485 1486 1486 1487 1488 1489 1490 1491 1492 1493 1493 1494 1495 1495 1496 1496 1497 1497 1497 1497 1497 1497 1498 1499 1499 1499 1500 1500 1501 1501 1502 1502 1502 1501 1500 1500 1500 1500 1500 1499 1499